TimeAST,TemperatureF,Dew PointF,Humidity,Sea Level PressureIn,VisibilityMPH,Wind Direction,Wind SpeedMPH,Gust SpeedMPH,PrecipitationIn,Events,Conditions,WindDirDegrees,DateUTC
12:00 AM,78.8,71.6,78,29.95,-9999.0,Variable,2.3,-,N/A,,Clear,0,2011-11-05 21:00:00
12:30 AM,78.8,71.6,78,29.95,-9999.0,Variable,1.2,-,N/A,,Clear,0,2011-11-05 21:30:00
1:00 AM,78.8,71.6,78,29.92,-9999.0,Variable,2.3,-,N/A,,Clear,0,2011-11-05 22:00:00
1:30 AM,77.0,71.6,83,29.92,-9999.0,Variable,2.3,-,N/A,,Clear,0,2011-11-05 22:30:00
2:00 AM,78.8,71.6,78,29.92,-9999.0,NNE,4.6,-,N/A,,Clear,20,2011-11-05 23:00:00
2:30 AM,78.8,73.4,83,29.92,-9999.0,NNE,5.8,-,N/A,,Clear,20,2011-11-05 23:30:00
3:00 AM,79,73,76,29.93,6,NNE,5.8,,,,Scattered Clouds,20,2011-11-06 00:00:00
3:00 AM,78.8,73.4,83,29.92,-9999.0,NNE,5.8,-,N/A,,Clear,20,2011-11-06 00:00:00
3:30 AM,77.0,73.4,89,29.92,-9999.0,Calm,Calm,-,N/A,,Clear,0,2011-11-06 00:30:00
4:00 AM,77.0,73.4,89,29.92,-9999.0,Calm,Calm,-,N/A,,Clear,0,2011-11-06 01:00:00
4:30 AM,77.0,73.4,89,29.92,-9999.0,Calm,Calm,-,N/A,,Clear,0,2011-11-06 01:30:00
5:00 AM,77.0,75.2,94,29.92,5.6,ESE,3.5,-,N/A,,Partly Cloudy,110,2011-11-06 02:00:00
5:30 AM,77.0,75.2,94,29.92,5.0,Variable,2.3,-,N/A,,Unknown,0,2011-11-06 02:30:00
6:00 AM,77.0,73.4,89,29.92,4.3,ESE,3.5,-,N/A,,Unknown,110,2011-11-06 03:00:00
6:30 AM,78.8,73.4,83,29.95,4.3,Variable,2.3,-,N/A,,Unknown,0,2011-11-06 03:30:00
7:00 AM,80.6,73.4,79,29.95,5.0,Variable,1.2,-,N/A,,Unknown,0,2011-11-06 04:00:00
7:30 AM,82.4,71.6,70,29.95,5.6,Variable,2.3,-,N/A,,Unknown,0,2011-11-06 04:30:00
8:00 AM,82.4,73.4,74,29.95,-9999.0,SSE,5.8,-,N/A,,Clear,160,2011-11-06 05:00:00
8:30 AM,84.2,73.4,70,29.95,-9999.0,SSE,3.5,-,N/A,,Clear,150,2011-11-06 05:30:00
9:00 AM,85,69,50,29.97,7,SE,9.2,,,,Partly Cloudy,140,2011-11-06 06:00:00
9:00 AM,86.0,69.8,58,29.95,-9999.0,SE,9.2,-,N/A,,Clear,140,2011-11-06 06:00:00
9:30 AM,87.8,60.8,40,29.95,-9999.0,SE,9.2,-,N/A,,Clear,140,2011-11-06 06:30:00
10:00 AM,87.8,62.6,43,29.95,-9999.0,SSE,8.1,-,N/A,,Clear,160,2011-11-06 07:00:00
10:30 AM,89.6,60.8,38,29.92,-9999.0,SSE,8.1,-,N/A,,Clear,150,2011-11-06 07:30:00
11:00 AM,89.6,64.4,43,29.92,6.2,SE,6.9,-,N/A,,Partly Cloudy,140,2011-11-06 08:00:00
11:30 AM,89.6,60.8,38,29.89,6.2,SE,8.1,-,N/A,,Mostly Cloudy,140,2011-11-06 08:30:00
12:00 PM,91.4,55.4,29,29.89,6.2,SE,8.1,-,N/A,,Scattered Clouds,130,2011-11-06 09:00:00
12:30 PM,91.4,62.6,38,29.86,6.2,SE,6.9,-,N/A,,Scattered Clouds,130,2011-11-06 09:30:00
1:00 PM,91.4,55.4,29,29.86,6.2,SE,9.2,-,N/A,,Scattered Clouds,140,2011-11-06 10:00:00
1:30 PM,91.4,55.4,29,29.83,6.2,SE,9.2,-,N/A,,Scattered Clouds,130,2011-11-06 10:30:00
2:00 PM,89.6,59.0,36,29.83,6.2,SE,9.2,-,N/A,,Mostly Cloudy,130,2011-11-06 11:00:00
2:30 PM,89.6,62.6,40,29.83,-9999.0,SE,11.5,-,N/A,,Clear,140,2011-11-06 11:30:00
3:00 PM,89,61,29,29.84,7,SE,10.4,,,,Scattered Clouds,140,2011-11-06 12:00:00
3:00 PM,89.6,60.8,38,29.83,6.2,SE,10.4,-,N/A,,Scattered Clouds,140,2011-11-06 12:00:00
3:30 PM,87.8,64.4,46,29.83,6.2,SE,9.2,-,N/A,,Scattered Clouds,140,2011-11-06 12:30:00
4:00 PM,87.8,64.4,46,29.83,6.2,SE,10.4,-,N/A,,Scattered Clouds,140,2011-11-06 13:00:00
4:30 PM,86.0,68.0,55,29.83,-9999.0,SE,8.1,-,N/A,,Clear,140,2011-11-06 13:30:00
5:00 PM,84.2,71.6,66,29.83,-9999.0,ESE,5.8,-,N/A,,Clear,120,2011-11-06 14:00:00
5:30 PM,84.2,71.6,66,29.83,-9999.0,East,5.8,-,N/A,,Clear,100,2011-11-06 14:30:00
6:00 PM,82.4,75.2,79,29.83,-9999.0,ESE,6.9,-,N/A,,Clear,110,2011-11-06 15:00:00
6:30 PM,82.4,71.6,70,29.86,-9999.0,ESE,5.8,-,N/A,,Clear,110,2011-11-06 15:30:00
7:00 PM,82.4,75.2,79,29.86,-9999.0,East,3.5,-,N/A,,Clear,90,2011-11-06 16:00:00
7:30 PM,82.4,75.2,79,29.86,-9999.0,East,4.6,-,N/A,,Clear,90,2011-11-06 16:30:00
8:00 PM,82.4,75.2,79,29.86,-9999.0,East,4.6,-,N/A,,Clear,100,2011-11-06 17:00:00
8:30 PM,82.4,73.4,74,29.86,-9999.0,East,4.6,-,N/A,,Clear,90,2011-11-06 17:30:00
9:00 PM,82,73,67,29.86,6,East,5.8,,,,Scattered Clouds,100,2011-11-06 18:00:00
9:00 PM,82.4,73.4,74,29.86,-9999.0,East,5.8,-,N/A,,Clear,100,2011-11-06 18:00:00
9:30 PM,82.4,73.4,74,29.83,-9999.0,East,5.8,-,N/A,,Clear,100,2011-11-06 18:30:00
10:00 PM,82.4,73.4,74,29.83,-9999.0,East,8.1,-,N/A,,Clear,100,2011-11-06 19:00:00
10:30 PM,82.4,73.4,74,29.83,-9999.0,East,6.9,-,N/A,,Clear,100,2011-11-06 19:30:00
11:00 PM,82.4,73.4,74,29.83,-9999.0,ESE,5.8,-,N/A,,Clear,110,2011-11-06 20:00:00
11:30 PM,82.4,73.4,74,29.83,-9999.0,ESE,8.1,-,N/A,,Clear,120,2011-11-06 20:30:00